Location: San Martino di Castrozza
(46.2667°N, 11.8000°E)
Time: 01:51:24
(UTC+00:00)

FENGYUN 3A - Pass Details

Date: 23 April 2021
Orbit: 823 x 837 km, 98.4° (Epoch: 15 May)

Event Time Altitude Azimuth Distance (km) Brightness Sun altitude
Rises 03:23:34 0° 15° (NNE) 3,376 7.5 -8.5°
Reaches altitude 10° 03:25:57 10° 17° (NNE) 2,436 6.8 -8.1°
Maximum altitude 03:31:21 77° 103° (ESE) 850 3.9 -7.3°
Drops below altitude 10° 03:36:42 10° 190° (S) 2,415 5.7 -6.5°
Sets 03:39:02 0° 192° (SSW) 3,343 6.4 -6.1°
